Hourly Data Report for August 16, 2021

TORONTO CITY
ONTARIO
Current Station Operator: ECCC - MSC

43°40'00.000" N
79°24'00.000" W
112.50 m
6158355
71508
XTO

Download Data

Hourly Data (August 2021)
Hourly Data Report for August 16, 2021
TIME
LST
Temp Definition
°C
Dew Point Definition
°C
Rel Hum Definition
%
Precip. Amount Definition
mm

Wind Dir Definition
10's deg

Wind Spd Definition
km/h
Visibility Definition
km
Stn Press Definition
kPa
Hmdx Definition


Wind Chill Definition


Weather Definition


00:00 18.4 13.4 73 0.0       100.91     LegendNANA
01:00 18.3 13.2 72 0.0       100.89     LegendNANA
02:00 18.0 13.5 75 0.0       100.86     LegendNANA
03:00 17.3 12.9 75 0.0       100.86     LegendNANA
04:00 17.1 13.1 77 0.0       100.83     LegendNANA
05:00 17.1 13.1 78 0.0       100.85     LegendNANA
06:00 17.7 13.4 76 0.0       100.86     LegendNANA
07:00 18.3 13.8 75 0.0       100.85     LegendNANA
08:00 20.5 14.7 70 0.0       100.85     LegendNANA
09:00 22.2 15.9 67 0.0       100.87 27   LegendNANA
10:00 22.7 16.1 67 0.0       100.90 27   LegendNANA
11:00 22.5 15.9 66 0.0       100.89 27   LegendNANA
12:00 23.8 17.0 66 0.0       100.85 29   LegendNANA
13:00 22.7 16.0 66 0.0       100.81 27   LegendNANA
14:00 22.8 16.8 69 0.0       100.76 28   LegendNANA
15:00 22.1 16.8 72 0.0       100.70 27   LegendNANA
16:00 22.3 16.7 70 0.0       100.66 27   LegendNANA
17:00 22.2 16.4 70 0.0       100.60 27   LegendNANA
18:00 22.1 16.6 71 0.0       100.56 27   LegendNANA
19:00 22.1 16.7 71 0.0       100.55 27   LegendNANA
20:00 22.1 16.5 70 0.0       100.54 27   LegendNANA
21:00 22.1 17.0 73 0.0       100.56 27   LegendNANA
22:00 22.3 18.0 77 0.0       100.52 28   LegendNANA
23:00 22.2 18.7 81 0.0       100.49 29   LegendNANA

Notes on Data Quality.

Legend

  • E = Estimated
  • M = Missing
  • NA = Not Available*
  • [empty] = Indicates an unobserved value
Date modified: